Location: C�an Torras
(41.5052°N, 1.9280°E)
Time: 21:49:47
(UTC+00:00)

ATLAS 5 CENTAUR R/B - Pass Details

Date: 20 January 2021
Orbit: 511 x 1147 km, 63.3° (Epoch: 16 February)

Event Time Altitude Azimuth Distance (km) Brightness Sun altitude
Rises 18:39:15 0° 271° (W) 2,695 6.4 -19.6°
Reaches altitude 10° 18:42:29 10° 301° (WNW) 1,886 4.7 -20.2°
Maximum altitude 18:44:29 13° 329° (NNW) 1,756 4.1 -20.6°
Drops below altitude 10° 18:46:36 10° 357° (N) 2,023 4.1 -21.0°
Enters shadow 18:47:30 - 6° (N) 2,232 4.3 -21.1°
